When you browse on this site, cookies collect data to enhance your experience and personalize the content and advertising you see.
Visit our Privacy Policy to learn more. By continuing to use the site, you agree to this use of cookies and data.
  • In Portugal
  • List of Countries
  • For 7 days
  • Water Temperature
  • Satellite Maps
  • Weather Map
  • Weather Widgets
  • user-avatar
    Login

    Hourly Weather Hondogi

    Today, 23 May, Thursday

    Time Temperature Precipitation Wind Pressure Humidity
    00:00 +14°C° 0 mm 0 mps 739 mmHg 82%
    01:00 +15°C° 0 mm 1 mps 739 mmHg 82%
    02:00 +14°C° 0 mm 1 mps 739 mmHg 83%
    03:00 +14°C° 0 mm 1 mps 739 mmHg 82%
    04:00 +14°C° 0 mm 1 mps 739 mmHg 82%
    05:00 +14°C° 0 mm 1 mps 739 mmHg 82%
    06:00 +16°C° 0 mm 1 mps 739 mmHg 77%
    07:00 +19°C° 0 mm 1 mps 739 mmHg 71%
    08:00 +20°C° 0 mm 2 mps 739 mmHg 66%
    09:00 +21°C° 0 mm 2 mps 739 mmHg 62%
    10:00 +24°C° 0 mm 2 mps 739 mmHg 57%
    11:00 +25°C° 0 mm 3 mps 739 mmHg 52%
    12:00 +25°C° 0 mm 3 mps 739 mmHg 52%
    13:00 +25°C° 0 mm 3 mps 739 mmHg 52%
    14:00 +25°C° 0 mm 4 mps 739 mmHg 52%
    15:00 +25°C° 0 mm 3 mps 739 mmHg 55%
    16:00 +25°C° 0 mm 3 mps 738 mmHg 58%
    17:00 +25°C° 0 mm 2 mps 738 mmHg 61%
    18:00 +23°C° 0.1 mm 2 mps 738 mmHg 67%
    19:00 +20°C° 0.1 mm 2 mps 738 mmHg 73%
    20:00 +19°C° 0.1 mm 1 mps 738 mmHg 79%
    21:00 +18°C° 0 mm 1 mps 738 mmHg 82%
    22:00 +18°C° 0 mm 1 mps 738 mmHg 85%
    23:00 +16°C° 0 mm 1 mps 738 mmHg 87%

    Tomorrow, 24 May, Friday

    Time Temperature Precipitation Wind Pressure Humidity
    00:00 +16°C° 0.1 mm 1 mps 738 mmHg 88%
    01:00 +15°C° 0.1 mm 1 mps 738 mmHg 89%
    02:00 +15°C° 0.1 mm 1 mps 739 mmHg 90%
    03:00 +15°C° 0.2 mm 1 mps 739 mmHg 91%
    04:00 +15°C° 0.2 mm 1 mps 739 mmHg 91%
    05:00 +15°C° 0.2 mm 1 mps 739 mmHg 92%
    06:00 +18°C° 0 mm 1 mps 739 mmHg 87%
    07:00 +19°C° 0 mm 1 mps 739 mmHg 82%
    08:00 +19°C° 0 mm 0 mps 739 mmHg 78%
    09:00 +22°C° 1.8 mm 1 mps 739 mmHg 75%
    10:00 +23°C° 1.8 mm 1 mps 739 mmHg 71%
    11:00 +24°C° 1.8 mm 2 mps 740 mmHg 68%
    12:00 +24°C° 2.1 mm 1 mps 739 mmHg 69%
    13:00 +23°C° 2.1 mm 1 mps 739 mmHg 70%
    14:00 +23°C° 2.1 mm 1 mps 739 mmHg 70%
    15:00 +23°C° 1 mm 2 mps 739 mmHg 74%
    16:00 +21°C° 1 mm 2 mps 739 mmHg 78%
    17:00 +21°C° 1 mm 3 mps 739 mmHg 82%
    18:00 +19°C° 0.1 mm 3 mps 739 mmHg 84%
    19:00 +18°C° 0.1 mm 3 mps 739 mmHg 87%
    20:00 +17°C° 0.1 mm 3 mps 739 mmHg 90%
    21:00 +17°C° 0 mm 3 mps 738 mmHg 91%
    22:00 +16°C° 0 mm 3 mps 738 mmHg 93%
    23:00 +14°C° 0 mm 3 mps 738 mmHg 94%

    Day after tomorrow, 25 May, Saturday

    Time Temperature Precipitation Wind Pressure Humidity
    00:00 +15°C° 0.1 mm 2 mps 738 mmHg 94%
    01:00 +15°C° 0.1 mm 2 mps 738 mmHg 95%
    02:00 +14°C° 0.1 mm 2 mps 738 mmHg 95%
    03:00 +15°C° 0.2 mm 2 mps 738 mmHg 94%
    04:00 +15°C° 0.2 mm 2 mps 738 mmHg 94%
    05:00 +15°C° 0.2 mm 1 mps 737 mmHg 93%
    06:00 +16°C° 0.2 mm 1 mps 737 mmHg 90%
    07:00 +19°C° 0.2 mm 1 mps 737 mmHg 86%
    08:00 +20°C° 0.2 mm 1 mps 738 mmHg 82%
    09:00 +20°C° 0.7 mm 2 mps 737 mmHg 79%
    10:00 +21°C° 0.7 mm 2 mps 737 mmHg 76%
    11:00 +23°C° 0.7 mm 2 mps 737 mmHg 73%
    12:00 +21°C° 1.6 mm 2 mps 737 mmHg 76%
    13:00 +20°C° 1.6 mm 2 mps 736 mmHg 80%
    14:00 +20°C° 1.6 mm 2 mps 736 mmHg 83%
    15:00 +20°C° 0.6 mm 2 mps 736 mmHg 84%
    16:00 +20°C° 0.6 mm 1 mps 736 mmHg 85%
    17:00 +20°C° 0.6 mm 1 mps 735 mmHg 86%
    18:00 +19°C° 0.1 mm 1 mps 735 mmHg 88%
    19:00 +18°C° 0.1 mm 1 mps 735 mmHg 89%
    20:00 +16°C° 0.1 mm 1 mps 735 mmHg 91%
    21:00 +15°C° 0 mm 2 mps 735 mmHg 91%
    22:00 +14°C° 0 mm 2 mps 735 mmHg 91%
    23:00 +12°C° 0 mm 3 mps 735 mmHg 90%

    26 May, Sunday

    Time Temperature Precipitation Wind Pressure Humidity
    00:00 +12°C° 0 mm 3 mps 736 mmHg 92%
    01:00 +11°C° 0 mm 3 mps 736 mmHg 93%
    02:00 +11°C° 0 mm 4 mps 736 mmHg 95%
    03:00 +10°C° 0 mm 3 mps 736 mmHg 95%
    04:00 +9°C° 0 mm 3 mps 736 mmHg 95%
    05:00 +8°C° 0 mm 3 mps 736 mmHg 94%
    06:00 +10°C° 0 mm 3 mps 736 mmHg 90%
    07:00 +11°C° 0 mm 3 mps 736 mmHg 85%
    08:00 +12°C° 0 mm 4 mps 736 mmHg 80%
    09:00 +13°C° 0 mm 4 mps 736 mmHg 75%
    10:00 +14°C° 0 mm 4 mps 736 mmHg 71%
    11:00 +16°C° 0 mm 5 mps 736 mmHg 67%
    12:00 +16°C° 0.1 mm 5 mps 736 mmHg 65%
    13:00 +17°C° 0.1 mm 5 mps 736 mmHg 64%
    14:00 +17°C° 0.1 mm 5 mps 736 mmHg 62%
    15:00 +17°C° 0.3 mm 5 mps 735 mmHg 66%
    16:00 +17°C° 0.3 mm 5 mps 735 mmHg 70%
    17:00 +16°C° 0.3 mm 5 mps 735 mmHg 74%
    18:00 +15°C° 0.7 mm 5 mps 735 mmHg 80%
    19:00 +13°C° 0.7 mm 4 mps 735 mmHg 87%
    20:00 +11°C° 0.7 mm 4 mps 734 mmHg 93%
    21:00 +10°C° 0.3 mm 4 mps 734 mmHg 93%
    22:00 +8°C° 0.3 mm 4 mps 734 mmHg 94%
    23:00 +8°C° 0.3 mm 4 mps 734 mmHg 94%

    27 May, Monday

    Time Temperature Precipitation Wind Pressure Humidity
    00:00 +7°C° 0.2 mm 4 mps 735 mmHg 94%
    01:00 +7°C° 0.2 mm 4 mps 735 mmHg 93%
    02:00 +6°C° 0.2 mm 4 mps 735 mmHg 92%
    03:00 +6°C° 0 mm 4 mps 736 mmHg 93%
    04:00 +6°C° 0 mm 5 mps 736 mmHg 93%
    05:00 +5°C° 0 mm 5 mps 736 mmHg 94%
    06:00 +6°C° 0 mm 5 mps 737 mmHg 90%
    07:00 +7°C° 0 mm 6 mps 737 mmHg 86%
    08:00 +7°C° 0 mm 6 mps 738 mmHg 82%
    09:00 +9°C° 0 mm 6 mps 738 mmHg 79%
    10:00 +10°C° 0 mm 6 mps 739 mmHg 75%
    11:00 +11°C° 0 mm 6 mps 739 mmHg 71%
    12:00 +11°C° 0 mm 6 mps 740 mmHg 72%
    13:00 +12°C° 0 mm 5 mps 740 mmHg 72%
    14:00 +13°C° 0 mm 5 mps 741 mmHg 73%
    15:00 +13°C° 0 mm 5 mps 741 mmHg 74%
    16:00 +13°C° 0 mm 4 mps 741 mmHg 75%
    17:00 +13°C° 0 mm 4 mps 741 mmHg 75%
    18:00 +13°C° 0 mm 3 mps 741 mmHg 79%
    19:00 +12°C° 0 mm 3 mps 742 mmHg 82%
    20:00 +12°C° 0 mm 2 mps 742 mmHg 86%
    21:00 +10°C° 0 mm 2 mps 742 mmHg 88%
    22:00 +9°C° 0 mm 2 mps 742 mmHg 91%
    23:00 +9°C° 0 mm 2 mps 742 mmHg 93%

    28 May, Tuesday

    Time Temperature Precipitation Wind Pressure Humidity
    00:00 +9°C° 0 mm 2 mps 743 mmHg 93%
    01:00 +8°C° 0 mm 3 mps 743 mmHg 94%
    02:00 +8°C° 0 mm 3 mps 743 mmHg 94%
    03:00 +8°C° 0 mm 3 mps 743 mmHg 93%
    04:00 +9°C° 0 mm 3 mps 743 mmHg 92%
    05:00 +9°C° 0 mm 3 mps 743 mmHg 91%
    06:00 +11°C° 0 mm 3 mps 743 mmHg 86%
    07:00 +13°C° 0 mm 4 mps 743 mmHg 81%
    08:00 +15°C° 0 mm 4 mps 743 mmHg 76%
    09:00 +17°C° 0 mm 4 mps 742 mmHg 72%
    10:00 +17°C° 0 mm 5 mps 742 mmHg 69%
    11:00 +19°C° 0 mm 6 mps 742 mmHg 66%
    12:00 +17°C° 0.4 mm 6 mps 742 mmHg 73%
    13:00 +16°C° 0.4 mm 6 mps 741 mmHg 81%
    14:00 +15°C° 0.4 mm 6 mps 741 mmHg 88%
    15:00 +15°C° 2.2 mm 6 mps 740 mmHg 90%
    16:00 +15°C° 2.2 mm 6 mps 740 mmHg 91%
    17:00 +15°C° 2.2 mm 7 mps 739 mmHg 93%
    18:00 +16°C° 0.4 mm 6 mps 739 mmHg 93%
    19:00 +16°C° 0.4 mm 5 mps 738 mmHg 92%
    20:00 +17°C° 0.4 mm 5 mps 738 mmHg 92%
    21:00 +17°C° 0.8 mm 5 mps 738 mmHg 93%
    22:00 +18°C° 0.8 mm 4 mps 738 mmHg 94%
    23:00 +17°C° 0.8 mm 4 mps 738 mmHg 95%
    Show more